Tracking 18843 objects as of 20-November-2017
HD Live streaming from Space Station
objects crossing your sky now

FENGYUN 1C DEB

Track FENGYUN 1C DEB now!
10-day predictions


NORAD ID: 31480
Int'l Code: 1999-025BVU
Perigee: 715.0 km
Apogee: 1,333.6 km
Inclination: 98.3 °
Period: 105.5 minutes
Semi major axis: 7395 km
RCS: 0.0047 m2 (small)
Launch date: May 10, 1999
Source: People's Republic of China (PRC)
Launch site: Taiyaun Space Center, China (TSC)

Note: This is SATELLITE DEBRIS
aabbcc
Your satellite tracking list
Your tracking list is empty




NASA's NSSDC Master Catalog

Two Line Element Set (TLE):
1 31480U 99025BVU 17324.29747892 +.00000625 +00000-0 +44859-3 0  9992
2 31480 098.3348 144.7822 0418297 228.0514 259.6434 13.65113401530325
Source of the keplerian elements: AFSPC